Skip Page Navigation
NASA JPL Caltech
NASA Logo - Jet Propulsion Laboratory + View the NASA Portal
+ Center for Near-Earth Object Studies
JPL Home Earth Solar System Stars & Galaxies Technology
JPL Solar System Dynamics
BODIES ORBITS EPHEMERIDES TOOLS PHYSICAL DATA DISCOVERY FAQ SITE MAP
IMPORTANT: The SSD Announcement email list is now available. Major changes are coming in the near future, including possible hostname and/or URL changes. To be notified of such changes, subscribe to this email list.

Please visit this page for more details.


JPL Small-Body Database Browser
Search: [ help ]  
185871 (2000 JY27)
Classification: Main-belt Asteroid          SPK-ID: 2185871
Ephemeris | Orbit Diagram | Orbital Elements | Mission Design | Physical Parameters | Discovery Circumstances | Close-Approach Data ]

[ show orbit diagram ]
Orbital Elements at Epoch 2459000.5 (2020-May-31.0) TDB
Reference: JPL 14 (heliocentric ecliptic J2000)
 Element Value Uncertainty (1-sigma)   Units 
e .2240223706611774 5.2232e-08  
a 2.677790001630753 1.5458e-08 au
q 2.077905137332634 1.4424e-07 au
i 10.77260455840396 5.202e-06 deg
node 46.61712716987991 2.8598e-05 deg
peri 107.6196370051805 3.0644e-05 deg
M 256.3711408799533 1.0413e-05 deg
tp 2459461.224615733669
(2021-Sep-03.72461573)
4.7957e-05 TDB
period 1600.527720487425
4.38
1.3859e-05
3.794e-08
d
yr
n .2249258137749502 1.9477e-09 deg/d
Q 3.277674865928873 1.8922e-08 au
  Orbit Determination Parameters
   # obs. used (total)      482  
   data-arc span      7144 days (19.56 yr)  
   first obs. used      2000-04-07  
   last obs. used      2019-10-29  
   planetary ephem.      DE431  
   SB-pert. ephem.      SB431-N16  
   condition code      0  
   norm. resid. RMS      .58705  
   source      ORB  
   producer      Otto Matic  
   solution date      2019-Nov-07 20:53:11  

Additional Information
 Earth MOID = 1.11651 au 
 Jupiter MOID = 1.8122 au 
 T_jup = 3.317 
[ show covariance matrix ]

Ephemeris | Orbit Diagram | Orbital Elements | Mission Design | Physical Parameters | Discovery Circumstances | Close-Approach Data ]

Physical Parameter Table
Parameter Symbol Value Units Sigma Reference Notes
absolute magnitude H 15.8   n/a MPO494026  

185871 (2000 JY27)          Discovered 2000-May-07 by LINEAR at Socorro
Reference: 20080520/Numbers.arcLast Updated: 2008-05-22

[ show close-approach data ]
Ephemeris | Orbit Diagram | Orbital Elements | Mission Design | Physical Parameters | Discovery Circumstances | Close-Approach Data ]
ABOUT SSD CREDITS/AWARDS PRIVACY/COPYRIGHT GLOSSARY LINKS
FirstGov 2020-Feb-22 01:15 UT
(server date/time)  
NASA Home Page
Site Manager:   Ryan S. Park
Webmaster  Alan B. Chamberlin